(2020 VN6) |
Classification: Apollo [NEO] SPK-ID: 54088801 |
[ hide orbit diagram ]
For accurate long-term ephemerides, please instead use our Horizons system.This orbit viewer was implemented using two-body methods, and hence should not be used for determining accurate long-term trajectories (over several years or decades) or planetary encounter circumstances.
Orbital Elements at Epoch 2459171.5 (2020-Nov-18.0) TDB
Reference: JPL 4 (heliocentric ecliptic J2000)
Element | Value | Uncertainty (1-sigma) | Units |
e | .6029499933664156 | 0.0017893 | |
a | 2.412542897593487 | 0.010671 | au |
q | .957900173493301 | 7.9918e-05 | au |
i | 1.770074767211545 | 0.0037165 | deg |
node | 224.4046608929202 | 0.0036722 | deg |
peri | 155.6413690440275 | 0.007532 | deg |
M | 7.511982522527696 | 0.051474 | deg |
tp | 2459142.939680508817 (2020-Oct-20.43968051) | 0.0062277 | TDB |
period | 1368.708591372787 3.75 | 9.0808 0.02486 | d yr |
n | .2630216557922875 | 0.001745 | deg/d |
Q | 3.867185621693674 | 0.017105 | au |
|
| | Orbit Determination Parameters
Additional Information
|
[ show covariance matrix ]
Physical Parameter Table
Parameter |
Symbol |
Value |
Units |
Sigma |
Reference |
Notes |
absolute magnitude |
H |
27.764 |
|
.43491 |
4 |
autocmod 2.8 |
|
[ show close-approach data ]
|